Location: Iowa City
(41.6610°N, 91.5300°W)
Time: 05:49:53
(UTC-06:00)

ISS - Visible Passes

Search period start: 11 December 2016 00:00
Search period end: 21 December 2016 00:00
Orbit: 401 x 409 km, 51.6° (Epoch: 11 December)

Date Brightness Start Highest point End Pass type
(mag) Time Alt. Az. Time Alt. Az. Time Alt. Az.
11 Dec -1.2 17:50:59 10° NNW 17:53:00 15° N 17:53:35 14° NNE visible
12 Dec -0.9 18:35:24 10° NW 18:36:27 16° NNW 18:36:27 16° NNW visible
13 Dec -1.5 17:43:32 10° NNW 17:45:54 18° NNE 17:46:41 17° NNE visible
14 Dec -1.8 18:27:42 10° NW 18:29:42 28° NNW 18:29:42 28° NNW visible
15 Dec -2.1 17:35:51 10° NW 17:38:40 26° NNE 17:40:09 19° ENE visible
15 Dec -0.4 19:12:07 10° WNW 19:12:51 15° WNW 19:12:51 15° WNW visible
16 Dec -3.5 18:20:03 10° NW 18:23:21 79° NNE 18:23:29 77° ENE visible
17 Dec -2.9 17:28:05 10° NW 17:31:17 45° NNE 17:34:21 11° ESE visible
17 Dec -0.8 19:04:58 10° W 19:07:06 21° WSW 19:07:06 21° WSW visible
18 Dec -2.1 18:12:33 10° WNW 18:15:41 42° SW 18:18:21 13° SSE visible
19 Dec -3.2 17:20:23 10° WNW 17:23:41 82° SW 17:26:59 10° SE visible
20 Dec -0.3 18:05:31 10° W 18:07:49 18° SW 18:10:06 10° S visible
